Погода в Державине

Россия / Оренбургская область     53°12′38″N   52°21′19″E
темп.,
°C
ветер,
м/с
пор.,
м/с
влажн.,
%
обл.,
%
осадки,
мм/ч
давл.,
гПа
погр.,
м
4 декабря, сб
сб423:00+2ююз51299100 0.1 1017435
02:00+2ююз51398100 0.1 1017476
05:00+2ююз61591100 0.3 1018556
08:00+3ююз71782100 0.0 1017545
11:00+2ююз8198850 0.0 1016657
14:00+3ю91989100 0.0 1014722
17:00+3ююз91988100 0.0 1013844
20:00+3ююз91895100 1.9 10121090
5 декабря, вс
вс523:00+4ююз71596100 3.6 10121028
02:00+3зюз4899100 4.1 1012432
05:000зсз2799100 9.7 1013394
08:00−1з2697100 2.6 1014431
11:00−2з2697100 2.7 1016317
14:00−2зсз2492100 0.0 1016324
17:00−3сз1197100 0.0 101814
20:00−4ссз1197100 0.0 101932
6 декабря, пн
пн623:00−5с1197100 0.0 101927
02:00−4ссв2395100 0.0 102080
05:00−6с239710 0.0 102144
08:00−7с139844 0.0 102254
11:00−5ссв2694100 0.0 1024208
14:00−4ссв2488100 0.0 1025297
17:00−5ссв2492100 0.0 1027147
20:00−5св259298 0.0 1029185
7 декабря, вт
вт723:00−6св2592100 0.0 1029171
02:00−6всв3589100 0.0 1030231
05:00−6всв3588100 0.0 1031219
08:00−7всв369125 0.0 1032160
11:00−7в378686 0.0 1033203
14:00−5в478162 0.0 1032273
17:00−6в3786100 0.0 1033199
20:00−7вюв497991 0.0 1032221
8 декабря, ср
ср823:00−6юв41177100 0.0 1031243
02:00−4юв51282100 0.0 1030276
05:00−3юв51193100 0.0 1030329
08:00−1ююв51396100 0.0 1029365
11:00−1ююв61492100 0.0 1029404
14:00+1ююв61487100 0.0 1028462
17:000ююв61487100 0.0 1028395
20:000ююв61487100 0.0 1028371